EST,Max TemperatureF,Mean TemperatureF,Min TemperatureF,Max Dew PointF,MeanDew PointF,Min DewpointF,Max Humidity, Mean Humidity, Min Humidity, Max Sea Level PressureIn, Mean Sea Level PressureIn, Min Sea Level PressureIn, Max VisibilityMiles, Mean VisibilityMiles, Min VisibilityMiles, Max Wind SpeedMPH, Mean Wind SpeedMPH, Max Gust SpeedMPH,PrecipitationIn, CloudCover, Events, WindDirDegrees
2012-11-1,41,39,36,39,37,34,92,89,85,29.76,29.69,29.61,10,5,1,17,10,23,0.19,8,Rain,251
2012-11-2,41,39,36,34,31,27,85,75,64,30.01,29.86,29.74,10,10,3,20,9,25,T,8,Rain,287
2012-11-3,42,39,35,36,32,28,89,78,67,30.14,30.10,30.02,10,10,7,16,8,21,0.03,8,Rain,302
2012-11-4,39,37,34,34,29,26,92,78,64,30.16,30.13,30.10,10,10,10,16,7,18,0.00,8,,328
2012-11-5,37,35,33,34,27,21,89,74,59,30.20,30.16,30.09,10,10,7,13,5,17,T,8,Rain,332
2012-11-6,45,35,25,25,23,21,88,67,45,30.18,30.08,29.97,10,10,10,12,5,16,0.00,4,,73
2012-11-7,40,33,26,25,23,21,81,66,50,30.10,30.02,29.93,10,10,10,12,7,15,0.00,4,,46
2012-11-8,45,34,23,30,26,20,92,73,53,30.20,30.16,30.09,10,10,8,16,5,18,0.00,3,,323
2012-11-9,52,40,27,36,32,25,92,71,50,30.27,30.20,30.17,10,7,3,13,6,16,0.00,5,,205
2012-11-10,62,52,42,41,39,34,96,70,43,30.25,30.21,30.16,10,8,4,13,7,17,0.04,6,Rain,164
2012-11-11,69,61,52,38,34,33,50,40,29,30.32,30.24,30.15,10,10,10,18,10,26,0.00,5,,172
2012-11-12,67,50,33,54,42,24,93,65,36,30.34,30.11,29.97,10,8,2,29,13,41,0.30,8,Rain,223
2012-11-13,34,32,29,27,24,21,78,70,61,30.56,30.45,30.33,10,10,9,17,6,24,T,8,Snow,271
2012-11-14,38,33,27,25,23,22,75,67,59,30.60,30.53,30.43,10,10,10,10,4,13,T,7,,68
2012-11-15,47,35,23,28,24,21,88,67,45,30.42,30.37,30.33,10,10,10,8,4,13,0.00,4,,18
2012-11-16,50,40,29,34,29,26,92,69,46,30.52,30.43,30.35,10,8,4,10,4,15,0.00,2,Fog,2
2012-11-17,54,39,24,32,27,22,100,69,38,30.63,30.58,30.53,10,8,4,8,5,13,0.00,1,,73
2012-11-18,54,41,27,30,27,25,85,62,38,30.57,30.52,30.45,10,10,9,12,7,16,0.00,3,,107
2012-11-19,52,41,30,33,30,26,85,65,44,30.45,30.36,30.22,10,9,6,9,5,12,0.00,4,,103
2012-11-20,52,42,31,35,32,29,89,70,50,30.21,30.17,30.11,10,10,7,7,2,8,0.00,8,,95
2012-11-21,59,45,31,35,28,22,92,58,24,30.25,30.22,30.16,10,10,7,7,2,9,0.00,3,,107
2012-11-22,61,45,29,37,30,23,85,62,39,30.24,30.16,30.00,10,10,10,13,6,17,0.00,2,,181
2012-11-23,56,43,30,44,31,21,77,54,30,29.97,29.87,29.77,10,10,7,29,16,38,0.01,7,Rain-Snow,233
2012-11-24,31,30,28,27,24,19,85,77,69,30.08,30.02,29.94,10,5,1,20,12,24,0.15,8,Snow,262
2012-11-25,37,32,26,25,21,19,84,68,52,30.06,29.97,29.87,10,7,0,18,9,23,0.07,7,Snow,225
2012-11-26,43,36,28,28,26,24,85,67,49,30.24,30.15,30.00,10,9,4,13,5,22,T,7,Snow,264
2012-11-27,37,30,23,29,24,18,85,69,52,30.32,30.27,30.21,10,8,2,10,4,13,0.03,8,Snow,337
2012-11-28,39,32,24,22,21,19,81,65,48,30.36,30.31,30.26,10,9,6,18,8,23,0.00,6,,238
2012-11-29,46,36,26,23,20,17,81,57,33,30.38,30.33,30.28,10,9,7,15,7,18,0.00,3,,205
2012-11-30,50,39,28,29,25,20,85,64,42,30.29,30.25,30.18,10,10,10,14,5,20,0.00,7,,145